Simultaneous Nadir Overpasses (SNOs) Predictions

Prediction of SNOs between GOES-14 and AQUA Satellite Orbit:

Table of predicted SNOs for the next 14.0 days since TLE Epoch: 9/28/2019
Index Date Time (GOES-14) GOES-14 Lat,Lon AQUA Lat,Lon Distance(km) Time Diff (sec)
1 09/28/2019 08:35:33 0.29,-104.21 0.36,-104.65 48.68 80
2 09/30/2019 08:20:42 0.29,-104.21 -0.26,-101.69 287.08 80
3 09/30/2019 20:42:07 -0.28,-104.23 -0.84,-106.88 301.48 80
4 10/02/2019 20:32:36 -0.28,-104.24 -0.22,-103.93 34.79 80
5 10/04/2019 20:20:25 -0.28,-104.24 0.40,-100.97 371.16 80
6 10/05/2019 08:41:41 0.26,-104.24 0.64,-106.14 215.62 80
7 10/07/2019 08:26:50 0.26,-104.24 0.01,-103.18 120.15 80
8 10/07/2019 20:48:15 -0.24,-104.22 -1.10,-108.38 472.80 80
9 10/09/2019 08:14:39 0.26,-104.24 -0.62,-100.23 456.27 80
10 10/09/2019 20:36:04 -0.24,-104.23 -0.47,-105.43 135.98 80
11 10/11/2019 20:26:32 -0.24,-104.23 0.11,-102.46 201.04 80




NCC Satellite Simultaneous Nadir Overpasses (SNOs) Prediction Service
